This is the latest recevied weather packets stored in our database for station/object SP9KB-13. If no packets are shown the sender has not sent any weather packets the latest 10 day(s).
| Time | Temp. | Humidity | Pressure | Rain* | Wind** | Luminosity | Snow |
|---|---|---|---|---|---|---|---|
| 1778227161 | 12.22° C | 91% | 997.5 hPa | 0 mm | - | - | - |
| 1778226861 | 12.22° C | 91% | 997.5 hPa | 0 mm | - | - | - |
| 1778226560 | 12.22° C | 91% | 997.5 hPa | 0 mm | - | - | - |
| 1778226259 | 12.22° C | 91% | 997.5 hPa | 0 mm | - | - | - |
| 1778225959 | 12.22° C | 91% | 997.5 hPa | 0 mm | - | - | - |
| 1778225658 | 12.22° C | 91% | 997.5 hPa | 0 mm | - | - | - |
| 1778225358 | 12.22° C | 91% | 997.5 hPa | 0 mm | - | - | - |
| 1778225057 | 12.22° C | 91% | 997.5 hPa | 0 mm | - | - | - |
| 1778224757 | 12.22° C | 92% | 997.5 hPa | 0 mm | - | - | - |
| 1778224456 | 12.22° C | 91% | 997.5 hPa | 0 mm | - | - | - |
| 1778224156 | 12.78° C | 92% | 997.4 hPa | 0 mm | - | - | - |
| 1778223852 | 12.22° C | 93% | 997.4 hPa | 0 mm | - | - | - |
| 1778223552 | 12.22° C | 93% | 997.4 hPa | 0 mm | - | - | - |
| 1778223251 | 12.22° C | 93% | 997.3 hPa | 0 mm | - | - | - |
| 1778222950 | 11.67° C | 94% | 997.3 hPa | 0 mm | - | - | - |
| 1778222650 | 11.67° C | 94% | 997.5 hPa | 0 mm | - | - | - |
| 1778222349 | 11.67° C | 94% | 997.3 hPa | 0 mm | - | - | - |
| 1778222049 | 12.22° C | 95% | 997.4 hPa | 0 mm | - | - | - |
| 1778221748 | 11.67° C | 94% | 997.3 hPa | 0 mm | - | - | - |
| 1778221448 | 11.67° C | 94% | 997.2 hPa | 0 mm | - | - | - |
| 1778221147 | 11.67° C | 96% | 997.2 hPa | 0 mm | - | - | - |
| 1778220847 | 11.67° C | 96% | 996.9 hPa | 0 mm | - | - | - |
| 1778220546 | 11.11° C | 96% | 997.3 hPa | 0 mm | - | - | - |
| 1778220245 | 11.67° C | 97% | 997.1 hPa | 0 mm | - | - | - |
| 1778219945 | 11.67° C | 97% | 997.2 hPa | 0 mm | - | - | - |
* Rain latest hour (hover to see other rain measurements)
** Current wind speed in m/s (hover to see current wind gust speed)